Regional Weather Roundup
Issued by NWS Mobile, AL

Home | Current Version | Previous Version | Text Only | Print | Product List | Glossary On
Versions: 1 2 3 4 5 6 7 8 9 10 11 12 13 14 15 16 17 18 19 20 21 22 23 24 25 26 27 28 29 30 31 32 33 34 35 36 37 38 39 40 41 42 43 44 45 46 47 48 49 50
000
ASUS44 KMOB 301416
RWRMOB
REGIONAL WEATHER ROUNDUP
NATIONAL WEATHER SERVICE MOBILE AL
900 AM CDT THU JUL 30 2015

ALZ061>064-301500-
COASTAL ALABAMA


CITY           SKY/WX    TMP DP  RH WIND       PRES   REMARKS
MOBILE REG APT MOSUNNY   82  75  79 N7        30.02R
BROOKLEY FIELD MOSUNNY   86  72  62 N9        30.02R
GULF SHORES    SUNNY     83  73  73 N6        29.99S

$$

ALZ051>060-301500-
INTERIOR SOUTHWEST AND SOUTH CENTRAL ALABAMA


CITY           SKY/WX    TMP DP  RH WIND       PRES   REMARKS
ANDALUSIA/OPP  MOSUNNY   88  75  65 N8        30.00R HX  97
EVERGREEN      MOSUNNY   84  75  74 N5        30.00R
FLORALA        MOSUNNY   82  75  79 NW5       30.01R
GREENVILLE     NOT AVBL

$$

FLZ001>006-301500-
WESTERN FLORIDA PANHANDLE


CITY           SKY/WX    TMP DP  RH WIND       PRES   REMARKS
CRESTVIEW      MOSUNNY   82  76  81 N5        30.00R
DESTIN         MOSUNNY   84  77  79 N5        29.98R
DUKE FIELD     PTSUNNY   82  76  81 N5        29.99R
MARY ESTHER    MOSUNNY   83  75  75 N5        29.97R
MILTON         PTSUNNY   83  75  77 NW8       30.00R
PENSACOLA      MOSUNNY   81  73  76 NW9       29.99R
NAS PENSACOLA  PTSUNNY   82  72  71 N9        29.98R
VALPARAISO     PTSUNNY   84  75  74 NW3       29.98R

$$

...MARINE OBSERVATIONS...

STATION/POSITION TIME  SKY/WX   TEMP    WIND        PRES    VSBY
                                AIR SEA DIR/SP/G
                 (UTC)          (F)     (DEG/KT/KT) (MB)    (MI)
PASCAGOULA       1312            82     360/  9/ 10 1015.6
PETIT BOIS ISL   1300            82     350/  9/ 12 1016.3
E DAUPHIN ISLAND 1400            83     350/  9/ 11 1015.7R
MIDDLE BAY LIGHT 1300            82     350/ 14     1015.2R
USCG MOBILE BAY  1306            81 85  340/  6/  9 1014.9
STATE DOCKS      1312            83 84              1015.7
MEAHER PARK      1400            81     350/  5     1015.6R
12 S ORANGE BCH  1350            82 84  330/ 10/ 12 1014.9R
WVE H/P(F/S)=  1/ 3

PENSACOLA BAY    1306            83 85  350/  6/  8 1015.2
64 S DAUPHIN ISL 1350            83 87  240/ 10/ 12 1016.0R
WVE H/P(F/S)=  2/ 4

67 S FORT MORGAN 1330            81     230/  6     1015.6S
115 SE PENSACOLA 1350            84 87  250/ 10/ 10 1015.7R
WVE H/P(F/S)=  2/ 4

MID GULF/42001   1350            85 85  290/ 10/ 12 1017.4R
WVE H/P(F/S)=  1/ 4

EAST GULF/42003  1350            82 85  220/ 10/ 14 1016.9R
WVE H/P(F/S)=  1/ 8


$$

...NEARBY LOCATIONS

CITY           SKY/WX    TMP DP  RH WIND       PRES   REMARKS
GULFPORT       MOSUNNY   83  74  74 N7        30.01R
BILOXI         MOSUNNY   82  76  82 N6        30.01R
PASCAGOULA     MOSUNNY   84  76  76 N7        30.00S
HATTIESBURG    MOSUNNY   82  74  76 NW3       30.03R
LAUREL         MOSUNNY   82 N/A N/A NW6       30.04R
MERIDIAN       SUNNY     85  74  69 N6        30.03R
MERIDIAN NAS   PTSUNNY   83  74  74 N6        30.03R
MONTGOMERY     SUNNY     85  76  74 CALM      29.99R
MAXWELL AFB    SUNNY     84  78  80 CALM      29.98R HX  95
TROY           MOSUNNY   86  77  74 N3        30.00R HX  97
FORT RUCKER    PTSUNNY   84  76  76 CALM      29.97R
DALEVILLE      PTSUNNY   83  77  82 VRB2      29.99R
DOTHAN         PTSUNNY   84  75  74 NE6       30.02R

$$

...OTHER SURROUNDING LOCATIONS...

CITY           SKY/WX    TMP DP  RH WIND       PRES   REMARKS
BIRMINGHAM     MOSUNNY   82  77  84 N6        30.04S
TUSCALOOSA     SUNNY     83  73  72 N5        30.01F
COLUMBUS GA    SUNNY     86  73  65 E5        29.98R
PANAMA CITY    NOT AVBL
TALLAHASSEE    PTSUNNY   82  77  84 VRB5      29.98R
BATON ROUGE    MOSUNNY   85  77  77 NW5       30.03R HX  95
NEW ORLEANS    PTSUNNY   84  75  74 N12       30.02R
SLIDELL        LGT RAIN  78  77  96 N8        30.03R FOG
JACKSON        MOSUNNY   89  74  60 NW7       30.03R HX  98
MCCOMB         PTSUNNY   83  77  82 N6        30.04R

$$

...SURROUNDING MARINE OBSERVATIONS...

STATION/POSITION TIME  SKY/WX   TEMP    WIND        PRES    VSBY
                                AIR SEA DIR/SP/G
                 (UTC)          (F)     (DEG/KT/KT) (MB)    (MI)
WAVELAND         1312            79 87  330/  5/  8 1016.3
PASCAGOULA RGN A 1312            83     360/  7/ 11 1015.3
PASCAGOULA PORT  1306               84                N/A
GRAND ISLE       1306            85 89  360/  5/ 10 1016.4
SOUTHWEST PASS   1400            84      10/  9/ 10 1016.4R
PILOT STATION E  1306            86 86  360/  8/ 11 1016.4
SHELL BEACH      1312            83 88  330/  9/ 11 1015.6
PANAMA CITY      1312            82 85  290/  1/  3 1014.3
APALACHICOLA     1306            86 88  280/  3/  6 1014.5
TYNDALL TOWER C  1400            84     260/ 13/ 14 1014.8R
S APLCHCLA/42036 1350            80 85  200/ 10/ 10 1015.5F
WVE H/P(F/S)=  2/ 4


$$




USA.gov is the U.S. government's official web portal to all federal, state and local government web resources and services.